Flag for Germany Weather past 2 weeks in Leinfelden-Echterdingen, Baden-Württemberg, Germany

Now
88 °F

Sunny.


Feels Like: 85 °F
Forecast: 62 / 83 °F
Wind: 3 mph from North

Location: Stuttgart-Echterdingen

Current Time: Aug 3, 2015 at 5:18:21 PM

Latest Report: Aug 3, 2015 at 4:50 PM


Visibility: 10 mi

Pressure: 30.01 "Hg

Humidity: 29%

Dew point: 52 °F

Location of Leinfelden-EchterdingenLocation

Historic Weather in Leinfelden-Echterdingen — Graph

°F

Leinfelden-Echterdingen temperature yesterday

Maximum temperature yesterday: 82 °F (at 3:50 PM)
Minimum temperature yesterday: 55 °F (at 5:50 AM)
Average temperature yesterday: 70 °F

Past Weeks' High & Low Weather Summary

 TemperatureHumidityPressure
High95 °F (Jul 22, 2:20 PM)94% (Jul 23, 1:50 AM)30.12 "Hg (Jul 23, 1:50 AM)
Low46 °F (Jul 31, 5:50 AM)26% (Jul 22, 2:20 PM)29.71 "Hg (Jul 24, 7:20 PM)
Average68 °F61%29.96 "Hg
* Reported Jul 19 4:20 PM — Aug 3 4:20 PM, Leinfelden-Echterdingen, Weather by CustomWeather, © 2015

Note: Actual official high and low records may vary slightly from our data, if they occured in-between our weather recording intervals... More about our weather records

Advertising

Leinfelden-Echterdingen weather history for previous 24 hours

 ConditionsComfort  
Time TempWeatherWind HumidityBarometerVisibility
4:20 PM
Mon, Aug 3
88 °FPassing clouds.5 mph29%30.01 "HgN/A
3:50 PM88 °FPassing clouds.5 mph29%30.04 "HgN/A
3:20 PM88 °FSunny.5 mph27%30.04 "Hg10 mi
2:20 PM86 °FSunny.2 mph31%30.04 "Hg10 mi
1:50 PM86 °FSunny.3 mph27%30.04 "Hg10 mi
1:20 PM84 °FSunny.5 mph31%30.07 "Hg10 mi
12:50 PM84 °FSunny.3 mph31%30.07 "Hg10 mi
12:20 PM82 °FPassing clouds.6 mph35%30.07 "HgN/A
11:50 AM81 °FSunny.5 mph37%30.07 "Hg10 mi
11:20 AM79 °FPassing clouds.5 mph39%30.07 "HgN/A
10:50 AM77 °FPassing clouds.7 mph44%30.07 "HgN/A
10:20 AM77 °FPassing clouds.5 mph44%30.09 "HgN/A
9:50 AM75 °FPassing clouds.6 mph50%30.09 "HgN/A
9:20 AM72 °FPassing clouds.5 mph57%30.09 "HgN/A
8:50 AM70 °FSunny.2 mph60%30.09 "Hg10 mi
8:20 AM68 °FSunny.2 mph64%30.07 "Hg10 mi
7:50 AM64 °FSunny.1 mph68%30.07 "Hg10 mi
7:20 AM61 °FSunny.2 mph77%30.07 "Hg10 mi
6:50 AM59 °FClear.1 mph77%30.07 "Hg10 mi
6:20 AM59 °FClear.1 mph77%30.07 "Hg10 mi
5:50 AM57 °FClear.2 mph88%30.07 "Hg10 mi
5:20 AM57 °FClear.6 mph82%30.07 "Hg10 mi
4:50 AM57 °FClear.1 mph82%30.04 "Hg10 mi
4:20 AM57 °FClear.1 mph82%30.07 "Hg10 mi
3:50 AM59 °FClear.1 mph77%30.07 "Hg10 mi
3:20 AM61 °FClear.1 mph77%30.07 "Hg10 mi
2:50 AM61 °FClear.3 mph77%30.07 "Hg10 mi
2:20 AM61 °FClear.6 mph77%30.07 "Hg10 mi
1:50 AM63 °FPassing clouds.3 mph73%30.07 "HgN/A
1:20 AM63 °FClear.1 mph73%30.07 "Hg10 mi
12:50 AM64 °FClear.1 mph64%30.07 "Hg10 mi
12:20 AM64 °FClear.2 mph68%30.09 "Hg10 mi
11:50 PM
Sun, Aug 2
66 °FClear.1 mph64%30.07 "Hg10 mi
11:20 PM68 °FClear.2 mph60%30.07 "Hg10 mi
10:50 PM70 °FClear.1 mph53%30.07 "Hg10 mi
10:20 PM70 °FClear.3 mph53%30.07 "Hg10 mi
9:50 PM72 °FSunny.3 mph50%30.07 "Hg10 mi
9:20 PM73 °FSunny.3 mph47%30.07 "Hg10 mi
8:50 PM75 °FSunny.2 mph44%30.07 "Hg10 mi
8:20 PM79 °FPassing clouds.3 mph34%30.07 "HgN/A
7:50 PM81 °FSunny.3 mph32%30.07 "Hg10 mi
7:20 PM81 °FSunny.6 mph32%30.07 "Hg10 mi
6:50 PM82 °FPassing clouds.6 mph28%30.07 "HgN/A
6:20 PM82 °FSunny.2 mph28%30.07 "Hg10 mi
5:50 PM82 °FPassing clouds.5 mph28%30.07 "HgN/A
5:20 PM82 °FPassing clouds.6 mph28%30.07 "HgN/A
Weather by CustomWeather, © 2015

See weather overviewHow to use our weather pages